Date,TemperatureHighF,TemperatureAvgF,TemperatureLowF,DewpointHighF,DewpointAvgF,DewpointLowF,HumidityHigh,HumidityAvg,HumidityLow,PressureMaxIn,PressureMinIn,WindSpeedMaxMPH,WindSpeedAvgMPH,GustSpeedMaxMPH,PrecipitationSumIn
2013-1-1,68.4,55.8,46.4,65.3,51.4,39.9,90,85,77,30.24,29.94,16,7,21,0.21
2013-1-2,46.4,43.9,43.0,39.9,36.4,33.3,79,75,68,30.35,30.21,13,6,21,0.00
2013-1-3,53.4,46.8,39.9,34.3,31.6,27.0,71,57,37,30.45,30.33,12,6,17,0.00
2013-1-4,50.2,48.4,46.6,35.2,33.6,29.9,61,57,49,30.54,30.39,13,6,17,0.00
2013-1-5,47.7,46.8,44.2,44.9,43.9,41.2,90,90,88,30.41,30.28,8,4,11,36.65
2013-1-6,58.6,48.4,41.5,44.5,40.8,37.4,90,77,48,30.41,30.29,13,5,21,0.00
2013-1-7,59.7,48.6,35.6,46.7,41.1,32.4,90,76,58,30.36,30.13,9,3,13,0.00
2013-1-8,63.5,58.5,52.3,59.9,54.4,44.6,90,86,73,30.15,29.92,14,4,21,0.25
2013-1-9,67.5,64.5,61.3,64.4,61.1,58.1,90,89,86,30.12,29.89,14,4,20,1.37
2013-1-10,69.4,60.3,50.5,59.0,52.0,43.7,90,76,42,30.15,30.02,7,1,11,0.07
2013-1-11,71.4,58.7,44.8,62.1,53.1,41.4,90,82,61,30.10,29.92,7,1,14,0.00
2013-1-12,75.2,72.7,64.8,70.0,68.3,61.8,90,86,81,29.93,29.75,11,4,21,0.41
2013-1-13,72.9,49.6,42.4,67.9,42.4,35.7,90,77,63,30.17,29.81,19,9,24,0.14
2013-1-14,46.9,44.1,39.9,39.7,37.2,34.9,90,77,65,30.27,30.11,14,7,20,38.97
2013-1-15,44.2,40.0,37.6,39.0,37.1,35.6,99,90,77,30.21,30.08,17,7,21,0.03
2013-1-16,51.1,42.1,33.1,36.5,29.8,20.9,92,65,31,30.36,30.19,17,7,22,0.02
2013-1-17,62.4,45.7,29.3,39.3,33.1,27.0,96,66,33,30.51,30.33,14,2,21,0.00
2013-1-18,63.3,48.2,35.6,46.7,39.5,33.8,99,75,44,30.57,30.42,11,1,13,0.00
2013-1-19,70.0,51.7,37.4,53.7,45.3,36.1,99,82,43,30.42,30.24,8,1,11,0.03
2013-1-20,70.5,55.9,45.1,60.4,50.4,44.3,99,84,50,30.32,30.17,4,1,8,0.00
2013-1-21,72.0,56.5,45.3,60.1,51.3,44.5,99,84,57,30.29,30.18,7,0,10,0.00
2013-1-22,72.7,58.1,45.0,56.9,50.9,44.2,99,80,52,30.37,30.25,5,1,9,0.00
2013-1-23,77.5,61.2,47.8,63.1,56.1,47.6,99,85,54,30.40,30.28,7,2,11,0.00
2013-1-24,81.0,68.0,60.1,68.5,62.6,59.8,99,85,53,30.35,30.19,10,3,17,0.00
2013-1-25,80.6,69.2,60.1,67.7,63.1,59.8,99,83,54,30.24,30.12,9,3,15,0.00
2013-1-26,79.2,67.2,61.0,69.3,62.8,60.4,99,88,54,30.24,30.15,8,1,11,0.00
2013-1-28,71.6,71.4,71.2,69.6,69.4,69.1,94,93,93,30.05,30.00,6,3,11,0.00
2013-1-29,77.5,73.2,59.9,71.6,69.3,56.8,93,88,72,30.01,29.66,15,6,27,0.00
2013-1-30,60.4,56.0,41.0,57.0,34.5,25.7,89,47,30,30.30,29.81,24,8,36,0.00
2013-1-31,68.7,51.3,34.7,43.5,32.8,24.2,96,57,19,30.38,30.26,10,2,17,0.00
2013-2-1,73.4,57.7,45.9,51.7,43.6,36.7,92,63,28,30.42,30.29,8,1,14,0.00
2013-2-2,76.6,60.9,46.4,60.2,52.4,45.4,99,77,46,30.31,30.21,6,1,14,0.00
2013-2-3,72.7,60.7,51.8,55.5,45.4,34.1,98,62,26,30.37,30.11,11,3,15,0.00
2013-2-4,72.5,63.6,57.0,67.9,60.3,51.4,99,90,73,30.11,29.88,8,1,13,0.11
2013-2-5,80.1,68.8,63.0,70.3,65.9,62.1,99,91,65,30.04,29.91,5,1,11,0.00
2013-2-6,67.5,64.6,61.2,66.3,63.9,60.0,99,98,95,30.08,29.90,17,3,21,0.48
2013-2-7,70.0,63.9,55.8,66.3,61.8,55.5,99,93,83,30.05,29.95,7,1,8,0.00
2013-2-8,70.2,61.9,54.0,63.7,53.8,50.2,97,76,52,30.23,30.04,13,6,20,0.00
2013-2-9,71.8,63.3,54.0,68.7,59.7,51.5,97,88,73,30.18,29.90,11,4,19,0.00
2013-2-10,75.6,67.6,59.5,72.2,61.4,51.2,97,81,62,30.02,29.80,13,5,22,0.02
2013-2-11,64.4,58.0,53.8,55.2,52.2,44.4,99,83,51,30.10,30.00,16,7,21,0.12
2013-2-12,64.2,59.0,55.2,63.3,57.0,52.8,99,93,81,30.04,29.86,12,4,16,0.00
2013-2-13,61.3,52.9,46.2,52.6,42.5,38.9,84,68,48,30.18,30.04,17,6,24,0.02
2013-2-14,68.4,51.1,36.9,49.0,40.5,34.6,99,72,30,30.22,30.09,7,1,8,0.00
2013-2-15,68.2,53.8,40.3,52.3,43.1,36.5,99,71,35,30.38,30.14,16,5,23,0.00
2013-2-16,62.6,50.4,39.2,36.3,31.1,24.5,73,50,26,30.50,30.31,14,4,19,0.00
2013-2-17,73.2,57.2,38.8,54.0,44.5,36.3,99,67,33,30.31,30.10,12,3,18,0.00
2013-2-18,74.5,67.1,56.1,69.2,61.6,52.5,96,83,71,30.13,29.90,18,5,26,0.23
2013-2-19,68.4,59.2,51.3,55.6,43.3,34.7,95,58,29,30.30,30.13,14,5,17,0.00
2013-2-20,64.2,58.4,54.1,63.3,51.3,35.0,99,79,46,30.16,29.82,15,7,24,40.11
2013-2-21,79.0,69.2,56.8,73.9,63.4,48.1,99,84,45,29.90,29.71,16,5,23,0.11
2013-2-22,68.0,61.2,54.1,53.3,49.2,41.0,87,66,48,30.04,29.89,12,6,17,0.00
2013-2-23,70.3,58.2,49.3,53.5,47.9,45.0,86,70,48,30.04,29.93,13,4,16,0.00
2013-2-24,70.9,59.0,44.4,60.7,52.6,42.4,99,80,62,29.99,29.71,12,4,17,0.00
2013-2-25,76.1,63.6,49.1,68.2,47.4,22.2,99,64,15,29.85,29.59,24,5,35,0.00
2013-2-26,66.4,53.5,44.1,40.6,36.5,33.1,69,54,32,29.99,29.84,17,5,24,0.00
2013-2-27,71.8,56.8,45.9,54.8,40.2,29.4,94,58,30,30.22,29.95,20,5,27,0.00
2013-2-28,58.6,49.6,42.8,34.1,30.6,27.3,71,48,34,30.34,30.21,14,6,19,0.00
2013-3-1,66.6,52.8,36.7,38.7,31.2,24.1,88,49,21,30.35,30.19,14,4,18,0.02
2013-3-2,57.4,48.4,39.7,35.7,28.5,17.7,73,49,23,30.42,30.30,22,7,30,0.00
2013-3-3,73.0,53.1,34.0,51.4,38.1,29.0,90,61,28,30.35,30.06,11,2,17,0.01
2013-3-4,79.9,67.5,55.2,65.2,59.0,51.1,92,76,49,30.06,29.83,14,6,27,0.00
2013-3-5,69.1,63.7,52.0,64.9,43.0,23.8,91,52,22,30.36,29.86,24,10,31,0.00
2013-3-6,69.3,54.5,44.1,42.8,28.6,22.7,70,39,19,30.48,30.28,13,4,17,0.00
2013-3-7,72.9,58.3,42.4,52.6,47.3,39.7,97,70,37,30.33,30.22,11,3,18,0.00
2013-3-8,72.5,62.6,41.3,63.9,58.2,31.5,99,87,38,30.25,29.97,11,4,19,6.26
2013-3-9,77.4,68.9,62.6,67.8,64.5,60.5,98,87,69,30.12,29.81,12,5,21,0.00
2013-3-10,68.7,63.6,54.7,67.9,55.3,38.4,99,77,47,30.11,29.77,17,7,27,0.27
2013-3-11,62.8,54.2,45.0,40.1,30.6,20.8,70,44,21,30.18,30.04,20,7,28,0.00
2013-3-12,75.4,54.9,37.4,46.8,38.4,31.8,96,60,22,30.29,30.11,8,1,11,0.00
2013-3-13,73.9,58.7,43.7,52.1,43.8,38.3,99,64,31,30.48,30.29,12,2,17,40.52
2013-3-14,78.1,60.3,45.0,57.9,48.2,44.2,99,70,33,30.45,30.32,9,2,13,0.00
2013-3-15,80.4,64.8,48.0,62.8,54.5,47.5,99,73,41,30.33,30.11,11,3,17,0.00
2013-3-16,82.9,68.0,55.2,64.4,60.2,54.4,99,79,45,30.12,29.90,13,4,22,0.00
2013-3-17,84.0,71.2,58.6,70.5,64.9,58.4,99,83,55,29.93,29.75,12,3,17,0.00
2013-3-18,91.2,77.7,67.1,71.0,66.8,61.0,99,73,41,29.93,29.76,10,3,14,0.00
2013-3-19,140.0,76.5,41.3,99.9,62.5,31.5,99,71,38,30.04,29.93,12,7,17,0.00
2013-3-20,75.4,68.5,57.2,52.3,43.6,35.4,83,44,26,30.17,30.10,14,4,17,6.67
2013-3-21,75.4,63.8,52.3,64.4,57.1,50.4,99,81,46,30.10,29.76,11,3,20,0.00
2013-3-22,85.1,74.3,65.7,72.3,69.3,64.1,99,85,64,29.79,29.71,10,3,18,0.00
2013-3-23,74.7,70.1,64.6,71.5,68.8,63.8,99,95,89,29.79,29.63,8,2,10,0.00
2013-3-24,66.7,58.2,50.0,66.4,42.7,28.7,99,61,30,30.18,29.68,24,11,37,0.00
2013-3-25,61.7,52.0,43.0,33.1,26.4,20.2,66,40,22,30.42,30.18,14,6,20,0.00
2013-3-26,64.8,52.8,40.8,33.2,25.2,20.4,64,36,21,30.54,30.36,14,4,19,0.00
2013-3-27,71.8,55.9,38.5,51.2,42.7,33.0,96,64,35,30.42,30.26,12,3,17,0.00
2013-3-28,74.5,65.2,56.7,62.4,57.7,50.6,94,77,63,30.30,30.22,11,4,17,0.00
2013-3-29,79.7,67.6,58.1,65.8,62.0,57.5,99,84,55,30.26,30.15,12,4,17,0.00
2013-3-30,81.7,71.5,64.0,69.0,65.2,61.9,99,83,53,30.19,30.00,9,3,12,0.00
2013-3-31,87.8,71.0,63.0,70.4,66.7,57.2,99,88,49,30.03,29.87,21,3,29,40.84
2013-4-1,81.1,69.7,59.9,70.9,65.3,59.6,99,87,63,30.11,29.98,9,3,14,0.04
2013-4-2,72.7,67.5,63.3,69.6,66.2,62.5,99,96,88,30.05,29.85,18,4,27,0.68
2013-4-3,67.1,61.3,54.0,64.1,59.7,53.1,99,95,83,30.13,29.78,17,7,22,0.11
2013-4-4,75.6,53.7,51.3,57.2,49.1,44.1,99,85,53,30.24,29.87,18,8,24,41.65
2013-4-5,72.3,58.8,45.1,54.2,48.8,43.2,98,71,48,30.31,30.13,11,3,16,0.00
2013-4-6,77.5,64.1,50.7,62.5,57.1,50.4,99,80,55,30.17,29.99,11,3,17,0.00
2013-4-7,81.9,69.3,58.5,67.2,63.0,58.2,99,82,55,30.03,29.89,13,3,17,0.00
2013-4-8,82.2,72.6,64.8,70.5,67.8,64.5,99,86,63,29.93,29.81,15,5,25,0.00
2013-4-9,84.4,75.4,69.1,75.2,71.3,68.4,98,88,70,29.84,29.74,18,7,26,0.00
2013-4-10,81.7,66.4,49.3,74.8,64.3,49.0,99,93,61,29.90,29.75,20,7,24,0.28
2013-4-11,69.1,54.5,43.3,50.8,47.4,42.8,99,80,45,30.01,29.83,18,6,23,0.63
2013-4-12,78.8,62.7,45.9,57.9,50.4,45.0,99,70,32,30.05,29.91,10,2,12,0.00
2013-4-13,79.2,66.3,51.1,64.2,56.7,50.8,99,75,43,30.02,29.86,13,4,17,0.00
2013-4-14,85.8,69.8,56.8,72.0,65.5,56.6,99,87,60,29.87,29.71,11,2,17,0.00
2013-4-15,81.1,75.4,69.3,74.4,71.6,68.7,99,89,74,29.89,29.78,9,4,16,0.00
2013-4-16,83.1,76.2,70.7,75.3,73.0,70.1,99,91,72,29.99,29.87,14,4,23,0.00
2013-4-17,77.0,74.5,73.0,75.6,73.8,72.1,99,98,94,29.98,29.80,11,4,21,43.00
2013-4-18,77.4,65.8,54.0,74.8,63.6,45.8,99,93,71,30.09,29.74,18,7,26,0.16
2013-4-19,66.9,56.5,48.2,45.8,36.2,25.8,72,49,24,30.29,30.08,17,8,25,0.00
2013-4-20,70.3,57.2,39.6,49.7,44.2,37.5,97,65,38,30.29,30.13,10,3,17,0.00
2013-4-21,76.8,64.2,50.7,61.4,55.5,48.3,97,75,55,30.21,30.09,11,3,14,0.00
2013-4-22,82.0,68.0,53.8,66.7,60.6,52.9,99,79,52,30.16,29.99,10,2,14,0.00
2013-4-23,82.6,71.6,60.6,71.0,66.4,60.2,99,85,63,30.03,29.92,10,3,14,0.00
2013-4-24,71.1,60.7,49.8,62.1,49.9,45.9,98,70,46,30.25,30.02,18,9,27,43.18
2013-4-25,74.8,65.8,59.2,61.6,51.2,44.2,82,61,36,30.35,30.22,14,6,17,0.00
2013-4-26,83.3,73.6,66.9,72.4,68.8,61.6,98,86,67,30.25,30.12,12,4,16,0.00
2013-4-27,79.9,70.2,64.4,74.6,69.1,64.1,99,97,82,30.16,30.01,24,3,30,3.34
2013-4-28,79.9,71.5,63.3,70.6,66.7,62.5,99,86,63,30.09,29.92,11,3,21,0.23
2013-4-29,83.8,72.0,65.7,74.1,68.8,65.4,99,91,61,29.98,29.87,8,2,11,0.06
2013-4-30,84.6,74.1,65.8,74.7,68.9,65.6,99,85,61,29.89,29.78,8,2,12,0.01
2013-5-1,86.4,76.6,67.1,74.0,70.0,66.8,99,82,56,29.93,29.84,8,2,11,0.00
2013-5-2,77.9,67.3,51.1,71.9,61.2,44.1,98,81,66,30.25,29.92,24,9,34,0.00
2013-5-3,67.6,56.7,47.5,44.1,37.8,28.2,80,54,25,30.25,30.10,25,11,30,0.00
2013-5-4,80.1,63.9,43.0,54.5,45.4,38.9,99,58,24,30.14,29.90,10,2,17,0.00
2013-5-5,72.3,64.3,56.7,63.4,48.4,43.1,89,58,41,30.15,30.00,15,5,22,46.84
2013-5-6,77.5,65.8,50.2,58.6,53.5,46.8,98,67,46,30.16,30.02,11,2,14,0.00
2013-5-7,84.9,71.7,56.5,66.1,59.4,55.8,99,68,41,30.12,30.00,10,2,13,0.00
2013-5-8,85.3,72.4,60.1,70.2,63.9,59.5,99,77,45,30.11,30.00,11,3,17,0.00
2013-5-9,80.6,74.9,68.2,75.1,72.0,66.4,97,91,81,30.04,29.89,11,3,16,0.00
2013-5-10,79.2,72.4,65.7,74.1,70.5,65.4,99,94,75,30.10,29.87,17,3,26,2.34
2013-5-11,84.4,74.7,65.5,74.2,66.2,55.9,99,78,52,30.13,29.97,12,4,17,0.00
2013-5-12,81.9,74.7,67.1,66.2,58.8,54.9,81,59,42,30.22,30.10,12,4,18,0.00
2013-5-13,82.6,72.1,57.9,65.4,60.4,55.5,96,68,43,30.32,30.21,8,2,13,0.00
2013-5-14,83.8,71.4,60.3,71.3,65.8,58.8,99,84,61,30.27,30.14,9,2,15,0.00
2013-5-15,80.8,72.3,68.0,74.5,69.9,67.4,99,92,75,30.18,29.96,10,3,15,0.22
2013-5-16,85.3,76.9,70.3,74.9,72.5,69.4,98,87,68,30.00,29.85,11,4,17,0.00
2013-5-17,88.7,79.2,71.6,78.4,74.1,70.5,99,85,67,29.98,29.87,11,3,17,0.00
2013-5-18,91.4,81.1,74.1,76.4,73.8,70.9,99,81,53,30.00,29.92,10,4,16,0.00
2013-5-19,90.3,81.1,74.8,75.7,74.0,55.2,95,80,53,29.95,29.84,12,4,19,49.40
2013-5-20,89.4,81.6,77.7,76.8,75.5,73.9,93,82,63,29.94,29.81,12,4,18,0.00
2013-5-21,89.4,81.9,76.8,76.9,75.6,73.9,96,82,63,29.90,29.76,10,4,20,0.00
2013-5-22,91.6,81.9,76.6,80.4,76.8,73.5,96,85,65,29.96,29.83,8,2,13,0.00
2013-5-23,89.6,81.2,73.9,79.2,75.8,73.6,99,85,63,30.09,29.93,8,2,12,0.01
2013-5-24,89.4,80.8,76.1,78.8,75.8,73.0,99,86,62,30.17,30.04,9,3,17,0.00
2013-5-25,85.1,79.0,74.1,78.8,75.0,73.7,99,88,70,30.19,30.09,7,2,13,0.04
2013-5-26,90.0,80.9,66.7,77.7,73.8,63.4,99,81,52,30.15,30.04,9,3,14,49.45
2013-5-27,90.0,80.3,72.0,76.1,73.2,69.5,99,81,61,30.09,29.96,11,3,16,49.45
2013-5-28,89.2,80.2,73.9,76.9,73.9,70.5,96,82,59,30.00,29.89,11,4,17,0.00
2013-5-29,86.7,80.1,75.6,77.8,75.4,73.9,95,86,69,29.93,29.84,11,4,21,0.00
2013-5-30,88.7,81.8,76.3,79.4,76.9,75.2,97,86,70,29.92,29.84,10,4,17,0.00
2013-5-31,92.8,83.9,77.9,80.2,77.3,74.8,98,82,59,29.94,29.86,11,4,20,0.00
2013-6-1,94.3,84.6,77.5,80.8,77.3,75.0,97,80,56,29.93,29.86,11,4,18,0.00
2013-6-2,84.2,77.0,70.5,77.8,73.5,69.5,99,90,67,30.08,29.91,17,3,25,0.14
2013-6-3,92.3,81.0,68.7,75.6,69.0,64.4,99,70,41,30.00,29.86,11,2,13,0.00
2013-6-4,92.5,81.4,70.2,77.8,72.1,69.3,99,76,49,29.96,29.85,8,2,11,36.28
2013-6-5,94.5,83.8,72.7,81.4,74.9,71.8,99,77,49,29.93,29.79,8,2,13,0.00
2013-6-6,96.3,83.9,73.4,81.7,75.6,71.2,99,79,49,29.92,29.75,24,2,29,0.09
2013-6-7,88.9,79.0,70.5,73.5,69.1,59.6,98,74,47,29.99,29.88,12,4,14,0.00
2013-6-8,87.4,78.1,70.7,73.5,69.9,65.8,91,77,60,29.97,29.92,6,1,9,0.00
2013-6-9,74.8,74.0,73.2,73.9,73.1,72.3,98,97,97,29.99,29.98,0,0,2,0.00
2013-6-10,94.1,80.7,70.2,81.7,75.5,69.6,99,86,54,30.03,29.97,10,1,20,0.11
2013-6-11,94.1,83.9,73.6,82.2,77.3,72.7,99,82,58,30.08,29.91,9,2,15,49.95
2013-6-12,93.6,84.0,77.0,80.8,77.6,74.2,99,82,61,30.10,30.01,7,2,11,0.00
2013-6-13,96.8,85.2,76.3,81.8,77.7,73.9,99,80,49,30.11,29.95,7,1,11,0.00
2013-6-14,96.4,86.1,75.9,82.5,76.6,71.2,99,76,46,30.02,29.91,9,1,12,0.00
2013-6-15,94.1,84.6,77.5,81.9,77.0,74.4,97,79,54,30.04,29.93,8,1,13,0.00
2013-6-16,96.6,84.8,74.5,80.8,76.3,72.5,99,78,47,30.07,29.96,7,2,12,0.00
2013-6-17,96.3,85.4,75.0,80.2,76.6,73.6,99,77,50,30.04,29.89,10,2,16,0.02
2013-6-18,95.0,83.9,75.2,81.1,76.2,72.8,99,80,50,30.03,29.91,12,2,17,50.75
2013-6-19,96.3,83.7,73.9,82.4,75.7,71.1,99,80,46,30.02,29.94,8,2,15,0.00
2013-6-30,89.4,88.5,77.7,75.5,59.2,57.8,93,38,36,30.02,29.86,10,6,14,0.00
2013-7-1,92.3,85.3,73.8,69.4,61.9,57.0,78,47,35,29.99,29.88,12,4,16,0.00
2013-7-2,95.4,82.8,70.5,71.6,65.6,59.3,96,59,31,30.05,29.94,9,2,13,0.34
2013-7-3,94.5,81.7,69.4,77.5,68.8,61.2,99,69,34,30.06,29.93,8,2,15,0.00
2013-7-4,95.2,83.0,71.6,76.4,70.9,66.8,96,69,41,30.03,29.92,9,2,11,0.00
2013-7-5,95.9,85.3,72.1,78.5,71.9,64.0,99,68,37,30.01,29.89,9,2,14,0.00
2013-7-6,95.5,84.3,76.6,80.4,75.2,70.4,96,76,46,29.97,29.88,10,2,16,0.00
2013-7-7,90.9,83.0,77.5,81.8,76.8,74.5,97,83,62,30.04,29.93,10,2,17,0.00
2013-7-8,89.4,80.3,75.6,80.6,76.9,74.5,99,90,65,30.19,30.03,7,1,12,0.37
2013-7-9,96.4,85.5,75.6,83.7,77.1,72.2,99,78,48,30.19,30.07,8,2,14,0.00
2013-7-10,80.6,78.5,77.2,77.5,76.7,75.9,97,94,89,30.11,30.10,2,0,4,0.00
2013-7-29,97.2,88.5,77.2,76.7,72.3,65.4,97,61,37,30.12,30.04,11,3,17,1.09
2013-7-30,97.3,85.1,74.8,80.8,75.2,66.5,99,76,37,30.16,30.05,10,2,14,0.00
2013-7-31,98.4,85.8,73.9,81.4,75.6,71.4,99,75,44,30.13,29.97,8,2,13,0.00
2013-8-1,98.6,86.6,77.5,81.5,76.1,71.1,98,74,42,30.07,29.93,8,2,11,52.68
2013-8-2,96.8,86.0,77.2,82.2,76.5,71.7,99,76,46,30.03,29.93,8,2,13,0.00
2013-8-3,97.7,86.1,76.1,81.5,77.2,73.2,98,77,46,30.07,29.98,8,2,15,0.00
2013-8-4,98.1,85.8,77.9,82.7,78.5,74.4,99,80,48,30.11,29.99,9,2,13,0.01
2013-8-5,100.0,86.9,76.6,82.1,76.6,71.6,99,75,41,30.08,29.95,8,2,15,0.00
2013-8-6,99.0,87.2,77.7,82.2,77.2,71.2,99,75,42,30.02,29.88,62,3,62,52.68
2013-8-7,100.2,87.4,78.6,82.0,76.4,69.5,98,74,38,29.99,29.87,11,2,14,0.00
2013-8-8,99.7,86.2,75.9,81.7,76.0,70.9,99,75,41,29.98,29.86,10,2,16,0.00
2013-8-9,99.3,86.3,74.5,82.7,76.8,72.3,99,76,43,30.00,29.89,8,1,15,0.00
2013-8-10,93.2,85.3,79.0,83.2,78.5,74.6,99,81,58,30.08,29.98,9,2,14,0.00
2013-8-11,95.0,85.7,78.3,83.7,77.4,73.0,99,78,52,30.09,30.02,10,2,14,0.00
2013-8-12,95.7,83.3,76.1,81.2,77.2,75.1,99,84,53,30.11,30.06,6,1,10,0.00
2013-8-14,75.7,75.5,75.2,75.4,75.0,74.5,99,98,97,30.02,29.99,7,1,9,0.00
2013-8-15,90.3,80.9,74.7,77.9,74.3,67.6,99,83,48,30.06,29.94,9,2,12,0.02
2013-8-16,96.8,82.5,71.2,79.5,74.4,69.8,98,80,45,30.04,29.90,23,2,29,53.74
2013-8-17,92.8,81.5,72.3,73.5,69.5,58.3,99,71,35,30.05,29.93,9,4,15,0.01
2013-8-18,93.0,82.6,72.1,74.2,70.4,65.1,93,69,42,30.07,29.99,11,2,17,0.00
2013-8-19,95.7,83.8,72.3,77.4,71.0,60.8,99,70,34,30.08,29.96,11,2,16,0.00
2013-8-20,89.2,80.5,73.8,79.3,75.1,73.2,99,84,67,30.08,29.99,9,1,17,0.00
2013-8-21,95.7,83.9,73.9,82.2,75.9,71.1,99,79,48,30.11,29.82,9,2,13,0.00
2013-8-22,94.6,85.6,77.4,82.7,77.4,73.6,99,78,53,30.09,29.97,8,2,12,0.00
2013-8-23,97.0,84.3,75.4,80.4,76.3,73.4,99,80,47,30.04,29.97,11,2,14,0.00
2013-8-24,96.1,90.3,82.2,79.5,75.0,70.9,85,62,45,30.05,29.96,13,4,19,0.00
2013-8-25,86.7,81.4,77.4,82.1,77.0,75.6,99,87,73,30.11,30.02,12,5,20,0.02
2013-8-26,83.5,76.9,74.1,79.6,76.2,73.8,99,98,84,30.16,30.07,8,2,14,0.48
2013-8-27,93.4,80.2,73.9,82.7,76.4,73.2,99,90,60,30.15,30.05,8,2,11,0.08
2013-8-28,93.6,83.6,73.4,82.6,74.4,70.3,99,77,50,30.13,30.01,7,1,10,0.00
2013-8-29,97.0,85.4,75.7,81.1,76.1,70.6,99,76,43,30.11,29.96,8,2,12,0.00
2013-8-30,97.0,85.5,77.5,82.1,77.3,73.4,98,78,49,30.06,29.92,8,1,13,0.00
2013-8-31,94.8,84.3,74.1,80.2,75.4,71.0,99,77,48,29.99,29.86,6,2,11,0.00
2013-9-1,96.3,84.5,73.8,80.1,75.1,71.1,99,76,45,29.96,29.85,7,2,13,0.00
2013-9-2,97.7,86.0,76.3,81.7,76.5,71.7,99,76,44,30.01,29.87,9,2,14,0.00
2013-9-3,98.4,86.5,76.6,82.1,76.2,71.1,99,75,43,30.03,29.89,7,1,11,0.00
2013-9-4,94.8,85.5,77.7,81.3,76.0,70.6,98,75,49,30.08,29.96,7,1,12,0.00
2013-9-5,96.1,85.7,77.2,81.8,76.4,71.9,98,76,46,30.12,29.85,11,2,15,54.33
2013-9-6,92.8,84.4,77.7,80.1,76.7,73.8,97,79,56,30.11,29.98,10,2,15,0.00
2013-9-7,89.1,81.1,76.5,82.4,76.9,71.3,99,88,69,30.06,29.97,13,2,17,0.14
2013-9-8,91.9,81.1,74.5,80.8,76.1,72.7,99,86,54,30.01,29.92,11,2,21,0.03
2013-9-9,92.7,81.6,73.6,80.6,75.2,72.3,99,82,55,30.01,29.95,11,2,16,0.00
2013-9-10,92.1,81.8,76.3,79.7,76.2,72.0,98,84,53,30.09,30.00,14,2,18,0.02
2013-9-11,94.8,83.5,74.5,80.1,74.6,70.7,99,77,47,30.11,30.01,14,3,17,0.00
2013-9-12,94.5,83.9,74.8,79.5,73.2,68.0,98,73,44,30.07,29.93,13,3,17,0.00
2013-9-13,96.4,84.0,73.8,76.9,72.3,66.5,97,72,40,29.97,29.83,11,2,14,0.00
2013-9-14,93.9,83.6,75.6,80.1,75.3,72.3,97,78,52,29.95,29.87,11,2,16,0.00
2013-9-15,91.6,83.1,76.8,82.1,76.9,74.1,96,83,58,30.04,29.93,13,3,21,0.16
2013-9-16,95.2,82.5,77.7,81.1,77.4,73.7,96,86,52,30.06,29.98,21,3,29,0.11
2013-9-17,93.7,84.2,77.9,81.9,77.1,70.9,99,81,50,30.07,29.96,13,3,17,0.02
2013-9-18,92.3,82.9,76.5,81.5,76.9,72.0,99,84,58,30.04,29.92,12,2,17,0.02
2013-9-19,91.0,81.9,76.3,83.4,78.5,75.6,99,90,63,29.98,29.87,8,2,15,0.60
2013-9-20,84.6,78.9,74.7,83.0,78.1,23.4,99,98,14,29.92,29.75,11,1,17,56.38
2013-9-21,80.1,74.8,71.6,74.5,71.6,69.3,99,90,74,29.87,29.77,14,6,21,0.27
2013-9-22,85.5,76.4,67.6,69.8,63.6,57.6,92,67,44,29.88,29.76,13,5,17,0.00
2013-9-23,89.6,80.4,72.9,75.5,68.7,61.7,85,68,56,29.84,29.75,10,4,14,0.00
2013-9-24,93.7,84.1,75.7,79.9,73.3,63.4,96,73,42,29.89,29.79,14,3,17,0.02
2013-9-25,94.1,81.1,68.5,76.8,68.2,60.3,99,70,35,29.91,29.80,8,1,11,0.00
2013-9-26,93.4,79.9,68.9,77.8,69.4,59.5,99,74,35,29.94,29.85,6,1,12,56.79
2013-9-27,88.9,80.6,72.5,82.0,76.1,71.0,99,87,70,29.97,29.90,8,2,15,0.02
2013-9-28,88.7,81.0,77.5,83.0,78.7,76.3,98,93,78,30.01,29.92,6,2,12,0.16
2013-9-29,85.6,80.1,77.0,81.5,77.3,75.2,99,92,74,30.01,29.92,12,2,17,0.02
2013-9-30,88.7,80.1,75.2,79.7,76.8,74.6,99,90,68,29.94,29.83,5,1,10,0.00
2013-10-1,102.7,79.7,74.7,77.9,75.3,-99.9,99,88,14,29.98,29.87,70,2,114,0.01
2013-10-2,87.3,78.7,74.5,81.1,76.1,73.6,99,92,74,30.01,29.92,11,1,12,0.00
2013-10-3,91.4,80.8,73.2,80.9,75.8,72.3,99,86,59,29.98,29.89,6,1,13,0.00
2013-10-8,90.1,68.8,65.8,73.3,61.8,59.6,87,79,58,30.12,29.93,3,2,4,0.00
2013-10-10,61.9,61.8,61.5,61.3,61.2,60.9,98,98,98,30.05,30.05,0,0,1,0.00
2013-10-14,86.7,76.7,76.1,75.8,75.7,74.0,99,97,66,30.11,29.95,3,1,6,0.00
2013-10-15,89.1,82.6,73.8,76.1,73.3,71.3,93,74,61,29.93,29.83,8,2,11,0.00
2013-10-16,75.0,68.7,63.7,71.9,67.4,62.5,99,96,84,30.09,29.84,11,4,14,0.00
2013-10-17,77.7,68.0,61.3,62.5,59.6,57.3,98,77,51,30.03,29.91,11,4,16,0.00
2013-10-18,74.7,69.7,62.2,66.8,64.2,57.6,97,83,68,29.95,29.83,12,5,17,0.00
2013-10-19,70.3,63.4,54.0,64.7,55.0,43.2,99,77,39,30.07,29.89,15,6,22,0.00
2013-10-20,76.6,63.0,46.4,63.5,54.8,40.9,99,77,45,30.04,29.89,8,1,114,0.00
2013-10-21,78.3,70.1,63.7,70.5,66.4,61.9,99,88,73,29.95,29.86,7,1,11,0.00
2013-10-22,76.1,66.9,56.5,67.3,60.4,50.5,99,82,44,30.05,29.90,12,4,20,0.00
2013-10-23,81.3,64.6,50.0,57.9,52.8,48.0,99,71,32,30.12,30.02,6,1,8,0.00
2013-10-24,83.7,67.3,52.9,61.8,56.6,52.3,99,73,37,30.18,30.07,7,1,8,0.00
2013-10-25,77.0,65.7,55.8,62.3,59.2,55.5,99,81,56,30.29,30.16,11,2,14,0.00
2013-10-26,83.3,74.7,58.5,68.5,64.7,56.0,96,73,54,30.21,30.04,8,2,11,0.00
2013-10-27,72.7,66.7,61.5,71.6,66.0,60.5,99,97,88,30.07,29.95,24,1,33,0.00
2013-10-28,77.7,77.1,76.8,75.6,75.5,75.3,96,95,94,30.06,30.06,4,2,5,0.00
2013-10-29,69.4,69.4,69.4,-8.1,-8.1,-8.1,4,4,4,0.00,40.00,14,14,51,0.00
2013-10-30,83.3,72.8,74.5,79.6,47.3,-99.9,99,69,4,30.05,0.76,14,6,51,0.00
2013-10-31,79.0,73.2,67.3,77.8,72.6,67.0,99,98,93,29.92,29.79,14,3,34,0.00
2013-11-2,72.5,61.9,53.6,47.4,42.3,30.9,77,53,22,30.25,30.15,17,3,25,0.00
2013-11-3,72.9,58.3,44.6,56.3,50.9,43.3,99,78,52,30.24,30.10,11,2,17,0.00
2013-11-4,70.9,65.1,55.9,69.6,63.6,52.1,99,95,87,30.11,30.01,9,2,19,0.00
2013-11-5,80.2,74.1,69.8,73.3,70.8,67.9,97,90,72,30.07,29.98,7,2,13,0.00
2013-11-6,81.1,73.9,69.1,77.7,71.6,68.8,99,93,73,30.11,30.00,13,2,15,0.00
2013-11-7,140.0,138.3,79.3,99.9,99.0,69.1,71,51,42,30.39,30.08,13,6,17,0.00
2013-11-8,140.0,73.7,55.2,99.9,32.7,-17.0,62,40,4,30.36,30.35,14,8,51,0.00
2013-11-12,71.4,65.6,59.5,58.6,57.0,54.4,83,74,64,30.44,30.09,16,8,24,0.00
2013-11-13,53.8,46.5,38.7,30.6,-11.8,-99.9,65,50,35,30.63,30.44,11,-304,17,0.00
2013-11-14,66.6,58.7,51.4,54.0,51.1,43.4,91,77,61,30.26,30.00,11,2,14,0.00
2013-11-15,80.1,66.2,54.5,67.9,61.9,51.1,99,87,60,30.01,29.92,5,1,9,0.00
2013-11-16,82.9,72.4,61.9,76.9,70.5,61.1,99,94,75,29.98,29.82,10,2,19,0.00
2013-11-17,85.5,78.1,71.8,76.8,74.6,70.6,99,90,71,29.95,29.82,11,2,17,0.00
2013-11-18,78.3,73.1,66.9,75.3,64.6,46.4,99,77,46,30.13,29.95,14,4,17,0.00
2013-11-19,69.8,63.4,56.3,52.9,48.5,43.1,82,59,49,30.16,30.05,14,5,19,0.00
2013-11-20,74.1,65.6,55.0,68.6,59.0,46.5,99,80,69,30.06,29.94,11,3,15,0.00
2013-11-21,80.6,74.4,68.9,78.3,73.5,68.6,99,97,85,30.10,29.97,9,2,14,0.00
2013-11-22,73.6,55.9,43.5,73.3,55.3,43.0,99,98,92,30.32,30.07,17,7,24,0.00
2013-11-23,50.2,46.7,43.2,48.4,45.4,41.7,99,95,82,30.39,30.28,16,9,25,0.00
2013-11-24,50.5,46.8,44.8,41.7,34.9,31.8,82,63,54,30.45,30.31,19,8,23,0.00
2013-11-25,45.5,42.5,39.7,43.2,40.6,35.4,99,94,68,30.32,29.98,14,6,21,0.00
2013-11-26,44.6,42.0,39.7,43.2,41.2,39.5,99,97,92,30.30,30.05,17,7,24,0.00
2013-11-27,50.0,41.7,35.1,41.1,32.7,28.7,99,72,45,30.48,30.14,11,4,17,0.00
2013-11-28,56.1,43.8,32.9,45.6,39.2,30.7,97,85,66,30.49,30.39,9,2,13,0.00
2013-11-29,65.1,49.3,39.2,60.5,40.6,36.8,98,75,47,30.53,30.19,8,2,12,0.00
2013-11-30,72.0,56.0,41.0,58.2,50.7,40.3,99,84,60,30.42,30.24,9,1,13,0.00
2013-12-1,73.2,65.4,51.3,64.2,61.2,51.0,99,87,71,30.24,29.98,6,2,10,0.00
2013-12-2,73.4,64.6,61.2,67.9,63.1,60.6,99,95,81,29.97,29.84,6,2,13,0.00
2013-12-5,41.0,35.7,39.4,40.6,24.7,-99.9,99,88,98,30.04,30.02,13,-100,20,0.00
2013-12-6,43.5,39.5,35.8,40.6,37.6,31.1,99,93,83,30.38,29.98,17,9,24,0.00
2013-12-7,38.3,36.3,34.2,37.2,33.4,30.2,98,89,83,30.43,30.28,14,6,22,0.00
2013-12-8,50.2,44.3,37.2,45.6,41.2,35.9,99,89,76,30.28,30.05,8,3,10,0.00
2013-12-9,48.4,46.1,40.8,47.9,45.7,40.6,99,98,97,30.31,30.06,15,6,21,0.00
2013-12-10,48.7,40.5,33.8,40.6,32.7,29.5,99,75,49,30.48,30.30,16,6,23,0.00
2013-12-11,53.6,47.3,38.8,43.9,39.1,32.6,82,74,62,30.51,30.34,10,3,14,0.00
2013-12-12,54.5,46.8,39.7,40.1,37.7,34.4,87,72,47,30.57,30.37,11,3,17,0.00
2013-12-13,60.6,54.3,43.7,58.4,52.2,39.9,99,93,83,30.37,29.88,8,2,13,0.00
2013-12-14,59.9,51.0,41.4,57.5,47.1,34.0,99,87,71,30.30,29.88,22,7,31,0.00
2013-12-15,56.5,43.0,33.6,37.1,33.9,29.8,92,72,41,30.41,30.29,15,3,21,0.00
2013-12-16,64.2,46.0,31.3,45.0,36.4,30.0,99,74,33,30.37,30.24,6,1,8,0.00
2013-12-17,70.3,50.4,35.6,53.1,42.6,34.2,99,79,34,30.37,30.25,6,1,8,0.00
2013-12-18,71.1,54.7,40.3,60.0,50.6,40.0,99,87,59,30.33,30.13,8,1,11,0.00
2013-12-19,76.3,65.4,52.3,70.2,63.1,51.5,99,93,75,30.12,29.89,12,2,20,0.00
2013-12-20,77.0,72.4,68.2,74.6,71.3,67.6,99,96,88,29.93,29.74,11,3,18,0.00
2013-12-21,75.6,67.3,54.1,74.2,66.2,53.3,99,96,88,29.86,29.60,13,3,21,0.00
2013-12-22,60.1,53.7,40.3,59.3,49.0,33.3,99,85,66,30.35,29.80,17,6,22,0.00
2013-12-23,54.3,45.6,35.8,36.7,33.8,30.6,86,65,41,30.54,30.35,11,4,17,0.00
2013-12-24,57.9,43.7,31.8,40.3,33.8,29.3,99,72,34,30.56,30.33,12,2,15,0.00
2013-12-25,61.3,51.6,38.8,52.2,46.5,36.2,96,83,71,30.37,30.28,12,3,15,0.00
2013-12-26,62.6,55.1,48.0,52.0,48.8,43.2,99,81,55,30.41,30.30,8,2,13,0.00
2013-12-27,59.9,53.9,50.7,48.0,43.7,38.6,85,69,54,30.43,30.32,11,3,14,0.00
2013-12-28,60.3,50.7,41.5,40.5,37.4,30.4,86,62,33,30.33,30.06,6,2,8,0.00
2013-12-29,68.2,53.0,37.8,50.6,43.1,37.4,99,73,40,30.19,30.01,11,1,17,0.00
2013-12-30,49.5,43.1,39.6,43.9,36.3,33.7,84,77,70,30.42,30.18,13,6,18,0.00
2013-12-31,50.9,46.0,41.2,41.6,36.5,32.5,79,69,60,30.47,30.29,11,3,15,0.00
2014-1-1,67.3,56.7,47.5,60.0,53.0,41.8,99,88,74,30.30,30.03,6,1,9,0.00
2014-1-2,59.7,48.0,39.0,59.4,35.4,24.0,99,64,36,30.46,30.08,20,8,27,0.00